Latest Weather Observations for Strathalbyn

IDS60901

Issued at 1:51 pm CDT Monday 22 December 2014 (issued every 10 minutes, with the page automatically refreshed every 10 minutes)

About weather observations | Map of Adelaide area stations | Latest observations for Adelaide area | Other Formats
Station Details ID: 024580 Name: STRATHALBYN RACECOURSE Lat: -35.28 Lon: 138.89 Height: 58.0 m
Data from the previous 72 hours. | See also: Recent months at Strathalbyn
Date/Time
CDT
Tmp

°C
App
Tmp
°C
Dew
Point
°C
Rel
Hum
%
Delta-T

°C
Wind Press
QNH
hPa
Press
MSL
hPa
Rain
since
9 am
mm
Dir
 
Spd
km/h
Gust
km/h
Spd
kts
Gust
kts
22/01:30pm 19.4 18.3 16.4 83 1.8 SSW 17 24 9 13 1009.5 - 0.0
22/01:00pm 19.3 18.5 16.2 82 1.9 SSW 15 20 8 11 1010.0 - 0.0
22/12:30pm 19.9 17.0 15.1 74 2.8 SSW 24 30 13 16 1009.5 - 0.0
22/12:00pm 20.5 17.7 15.3 72 3.1 SSW 24 32 13 17 1009.3 1009.1 0.0
22/11:30am 21.2 19.4 14.4 65 4.0 SSW 17 22 9 12 1009.0 - 0.0
22/11:00am 20.9 20.4 14.8 68 3.6 SW 11 15 6 8 1008.4 - 0.0
22/10:30am 20.3 20.1 14.7 70 3.3 SW 9 13 5 7 1008.2 - 0.0
22/10:00am 19.9 19.3 14.7 72 3.0 SW 11 19 6 10 1008.4 - 0.0
22/09:30am 19.6 19.4 14.6 73 2.9 SSW 9 13 5 7 1007.6 - 0.0
22/09:00am 19.5 18.9 14.5 73 2.9 SW 11 15 6 8 1008.7 1008.5 0.0
22/08:30am 19.4 18.4 14.6 74 2.8 SSW 13 19 7 10 1007.8 - 0.0
22/08:00am 18.6 18.0 14.5 77 2.4 SW 11 15 6 8 1007.4 - 0.0
22/07:30am 18.0 17.3 14.3 79 2.1 SW 11 15 6 8 1007.6 - 0.0
22/07:00am 17.7 17.0 14.2 80 2.0 SW 11 17 6 9 1007.8 - 0.0
22/06:30am 17.5 17.1 14.0 80 2.0 WSW 9 17 5 9 1007.8 - 0.0
22/06:00am 17.2 17.1 13.9 81 1.9 WSW 7 11 4 6 1007.6 1007.4 0.0
22/05:30am 17.1 16.6 13.8 81 1.9 WSW 9 11 5 6 1007.7 - 0.0
22/05:00am 17.0 16.1 13.7 81 1.9 WSW 11 17 6 9 1007.9 - 0.0
22/04:30am 16.8 15.8 13.5 81 1.9 WSW 11 15 6 8 1007.7 - 0.0
22/04:00am 16.6 15.6 13.5 82 1.7 WSW 11 13 6 7 1008.1 - 0.0
22/03:30am 16.4 15.7 13.3 82 1.7 WSW 9 13 5 7 1008.1 - 0.0
22/03:00am 16.8 15.4 13.5 81 1.9 SW 13 17 7 9 1008.6 1008.4 0.0
22/02:30am 17.2 15.5 13.7 80 2.0 SW 15 22 8 12 1008.9 - 0.0
22/02:00am 17.3 14.8 14.0 81 1.9 SSW 20 28 11 15 1009.3 - 0.0
22/01:30am 17.5 15.2 14.2 81 1.9 SW 19 26 10 14 1009.8 - 0.0
22/01:00am 17.4 15.1 14.1 81 1.9 SW 19 28 10 15 1010.1 - 0.0
22/12:30am 17.7 15.7 13.8 78 2.2 SSW 17 30 9 16 1010.7 - 0.0
22/12:00am 17.8 14.5 13.9 78 2.2 SSW 24 35 13 19 1011.3 1011.1 0.0
 
Date/Time
CDT
Tmp

°C
App
Tmp
°C
Dew
Point
°C
Rel
Hum
%
Delta-T

°C
Wind Press
QNH
hPa
Press
MSL
hPa
Rain
since
9 am
mm
Dir
 
Spd
km/h
Gust
km/h
Spd
kts
Gust
kts
21/11:30pm 18.0 15.1 14.1 78 2.2 SSW 22 33 12 18 1011.2 - 0.0
21/11:00pm 18.2 14.6 14.1 77 2.4 SSW 26 33 14 18 1011.3 - 0.0
21/10:30pm 18.8 16.7 13.6 72 3.0 SW 17 24 9 13 1011.6 - 0.0
21/10:00pm 18.9 16.5 13.7 72 3.0 SW 19 24 10 13 1011.2 - 0.0
21/09:30pm 19.1 17.4 13.7 71 3.1 SW 15 20 8 11 1010.6 - 0.0
21/09:00pm 19.1 17.5 13.9 72 3.0 SW 15 20 8 11 1010.7 1010.5 0.0
21/08:30pm 19.3 17.3 13.9 71 3.1 SW 17 24 9 13 1010.6 - 0.0
21/08:00pm 19.9 18.6 13.6 67 3.6 SW 13 17 7 9 1010.5 - 0.0
21/07:30pm 20.4 19.1 13.6 65 3.9 SW 13 17 7 9 1010.7 - 0.0
21/07:00pm 20.8 19.5 13.7 64 4.1 SW 13 17 7 9 1010.9 - 0.0
21/06:30pm 21.6 19.6 13.8 61 4.5 S 17 20 9 11 1010.5 - 0.0
21/06:00pm 22.5 19.8 13.6 57 5.2 SSW 20 28 11 15 1010.5 1010.3 0.0
21/05:30pm 23.1 20.6 14.1 57 5.3 S 20 30 11 16 1010.6 - 0.0
21/05:00pm 23.3 19.8 12.3 50 6.3 SSW 22 30 12 16 1010.7 - 0.0
21/04:30pm 24.0 19.3 12.0 47 6.8 SSW 28 35 15 19 1010.7 - 0.0
21/04:00pm 24.9 20.4 12.5 46 7.1 SSW 28 41 15 22 1010.6 - 0.0
21/03:30pm 24.8 19.9 12.7 47 7.0 S 30 39 16 21 1011.0 - 0.0
21/03:00pm 24.0 18.6 12.9 50 6.4 SSW 33 41 18 22 1011.3 1011.1 0.0
21/02:30pm 26.2 21.3 14.3 48 7.1 S 33 41 18 22 1011.2 - 0.0
21/02:00pm 25.5 20.6 14.3 50 6.7 S 33 43 18 23 1011.4 - 0.0
21/01:30pm 26.2 21.5 14.3 48 7.1 SSW 32 41 17 22 1011.5 - 0.0
21/01:00pm 25.6 19.9 14.1 49 6.8 S 37 46 20 25 1011.5 - 0.0
21/12:30pm 28.3 22.6 14.2 42 8.5 S 37 46 20 25 - - 0.0
21/12:08pm 29.1 24.4 12.1 35 9.9 SSW 28 46 15 25 1011.1 - 0.0
21/12:05pm 30.4 26.5 10.9 30 11.2 SSW 22 39 12 21 1011.4 - 0.0
21/12:00pm 36.0 31.7 3.3 13 17.2 WNW 15 24 8 13 1010.9 1010.7 0.0
21/11:30am 34.5 29.0 2.1 13 16.5 NNW 20 32 11 17 1010.7 - 0.0
21/11:00am 34.2 28.9 2.9 14 16.2 NNW 20 33 11 18 1010.9 - 0.0
21/10:30am 33.5 27.0 2.4 14 15.9 NNW 26 35 14 19 1010.9 - 0.0
21/10:00am 33.0 26.8 2.0 14 15.7 NNW 24 32 13 17 1010.8 - 0.0
21/09:30am 32.1 27.0 4.0 17 14.6 N 20 30 11 16 1011.1 - 0.0
21/09:00am 27.2 25.1 8.1 30 10.3 NE 9 13 5 7 1011.5 1011.3 0.0
21/08:30am 24.2 22.5 9.8 40 7.9 NNE 9 13 5 7 1011.8 - 0.0
21/08:00am 21.0 19.3 9.9 49 6.0 NNW 9 11 5 6 1011.7 - 0.0
21/07:30am 18.7 17.4 9.2 54 5.0 NNW 6 7 3 4 1011.7 - 0.0
21/07:00am 16.1 15.2 9.3 64 3.5 NNW 4 6 2 3 1011.7 - 0.0
21/06:30am 13.9 11.6 9.1 73 2.4 NNW 11 13 6 7 1011.4 - 0.0
21/06:00am 12.7 11.0 8.4 75 2.1 NNW 7 9 4 5 1011.5 1011.3 0.0
21/05:30am 13.0 11.0 8.7 75 2.2 NNW 9 11 5 6 1011.6 - 0.0
21/05:00am 13.1 11.5 8.6 74 2.3 NNW 7 11 4 6 1011.6 - 0.0
21/04:30am 13.3 10.5 8.6 73 2.4 NNW 13 13 7 7 1011.7 - 0.0
21/04:00am 13.3 11.7 8.6 73 2.4 NW 7 11 4 6 1012.0 - 0.0
21/03:30am 13.4 10.6 8.7 73 2.4 NNW 13 15 7 8 1012.3 - 0.0
21/03:00am 14.0 11.8 9.2 73 2.5 NNW 11 13 6 7 1012.4 1012.2 0.0
21/02:30am 14.3 12.1 9.5 73 2.5 NW 11 15 6 8 1012.9 - 0.0
21/02:00am 14.5 12.4 9.7 73 2.5 NW 11 13 6 7 1013.3 - 0.0
21/01:30am 14.2 12.8 11.0 81 1.7 NW 9 11 5 6 1013.4 - 0.0
21/01:00am 14.2 12.9 11.2 82 1.6 WNW 9 11 5 6 1013.6 - 0.0
21/12:30am 14.7 13.5 11.5 81 1.7 WNW 9 11 5 6 1014.1 - 0.0
21/12:00am 14.6 12.9 11.2 80 1.8 WSW 11 11 6 6 1014.3 1014.1 0.0
 
Date/Time
CDT
Tmp

°C
App
Tmp
°C
Dew
Point
°C
Rel
Hum
%
Delta-T

°C
Wind Press
QNH
hPa
Press
MSL
hPa
Rain
since
9 am
mm
Dir
 
Spd
km/h
Gust
km/h
Spd
kts
Gust
kts
20/11:30pm 14.9 13.6 11.3 79 1.9 WSW 9 11 5 6 1014.6 - 0.0
20/11:00pm 15.5 14.7 11.7 78 2.1 WSW 7 9 4 5 1014.9 - 0.0
20/10:30pm 15.4 14.3 11.8 79 2.0 SW 9 9 5 5 1015.4 - 0.0
20/10:00pm 15.5 14.6 11.5 77 2.2 SW 7 9 4 5 1015.5 - 0.0
20/09:30pm 16.6 15.5 11.9 74 2.6 SSW 9 11 5 6 1015.4 - 0.0
20/09:00pm 17.2 15.4 12.1 72 2.8 S 13 17 7 9 1015.5 1015.4 0.0
20/08:30pm 18.1 15.5 12.1 68 3.3 S 17 20 9 11 1015.2 - 0.0
20/08:00pm 19.1 15.9 11.9 63 4.0 S 20 26 11 14 1015.0 - 0.0
20/07:30pm 20.3 17.0 11.5 57 4.9 S 20 26 11 14 1014.9 - 0.0
20/07:00pm 21.0 17.2 11.3 54 5.4 S 22 28 12 15 1014.8 - 0.0
20/06:30pm 22.3 18.9 11.1 49 6.2 SSW 20 28 11 15 1014.6 - 0.0
20/06:00pm 22.9 18.7 11.0 47 6.6 SSW 24 32 13 17 1014.4 1014.3 0.0
20/05:30pm 24.3 19.7 10.9 43 7.5 S 26 33 14 18 1014.4 - 0.0
20/05:00pm 24.8 20.8 9.1 37 8.5 SSE 20 28 11 15 1014.5 - 0.0
20/04:30pm 24.7 20.5 8.2 35 8.8 S 20 28 11 15 1014.8 - 0.0
20/04:00pm 25.4 21.4 8.4 34 9.2 SSE 19 30 10 16 1015.0 - 0.0
20/03:30pm 25.1 21.3 7.7 33 9.2 SE 17 26 9 14 1015.3 - 0.0
20/03:00pm 25.2 20.8 7.3 32 9.4 SE 20 28 11 15 1015.7 1015.6 0.0
20/02:30pm 25.6 21.5 7.7 32 9.5 SE 19 26 10 14 1016.1 - 0.0
20/02:00pm 24.7 20.9 7.4 33 9.1 SE 17 26 9 14 1016.7 - 0.0
20/01:30pm 23.7 19.8 6.9 34 8.7 SSE 17 24 9 13 1017.2 - 0.0
20/01:00pm 24.1 20.4 8.1 36 8.5 SE 17 26 9 14 1017.6 - 0.0
20/12:30pm 23.2 19.3 7.3 36 8.3 S 17 24 9 13 1018.0 - 0.0
20/12:00pm 23.1 19.9 6.8 35 8.4 ESE 13 20 7 11 1018.3 1018.2 0.0
20/11:30am 22.7 20.5 8.0 39 7.7 N 9 17 5 9 1018.9 - 0.0
20/11:00am 21.6 19.0 7.8 41 7.2 E 11 19 6 10 1019.0 - 0.0
20/10:30am 20.5 18.0 8.2 45 6.4 NNE 11 19 6 10 1019.2 - 0.0
20/10:00am 19.5 16.2 8.2 48 5.9 E 15 20 8 11 1019.6 - 0.0
20/09:30am 18.7 15.9 8.7 52 5.2 E 13 19 7 10 1019.9 - 0.0
20/09:00am 17.7 14.5 8.6 55 4.7 ENE 15 20 8 11 1020.2 1020.1 0.0
20/08:30am 16.9 13.7 8.6 58 4.3 NE 15 20 8 11 1020.0 - 0.0
20/08:00am 15.9 12.8 8.9 63 3.6 NE 15 20 8 11 1019.9 - 0.0
20/07:30am 14.9 12.5 8.8 67 3.1 N 11 15 6 8 1019.8 - 0.0
20/07:00am 12.9 10.9 8.6 75 2.2 NNW 9 11 5 6 1019.7 - 0.0
20/06:30am 11.1 8.9 8.0 81 1.5 NNW 9 11 5 6 1019.4 - 0.0
20/06:00am 10.4 7.4 7.5 82 1.4 NNW 13 15 7 8 1019.1 1019.0 0.0
20/05:30am 11.0 7.9 7.3 78 1.8 NW 13 15 7 8 1018.7 - 0.0
20/05:00am 11.2 8.3 8.1 81 1.5 NNW 13 13 7 7 1018.4 - 0.0
20/04:30am 11.1 8.1 7.6 79 1.7 NNW 13 13 7 7 1018.4 - 0.0
20/04:00am 11.0 9.1 7.5 79 1.7 NW 7 11 4 6 1018.4 - 0.0
20/03:30am 11.6 9.4 7.7 77 1.9 SW 9 9 5 5 1018.5 - 0.0
20/03:00am 11.8 10.9 7.7 76 2.0 SW 2 7 1 4 1018.7 1018.6 0.0
20/02:30am 12.3 11.8 7.8 74 2.2 CALM 0 0 0 0 1019.0 - 0.0
20/02:00am 13.5 13.2 8.6 72 2.5 CALM 0 0 0 0 1019.5 - 0.0
20/01:30am 13.7 12.1 8.7 72 2.5 SW 7 9 4 5 1019.9 - 0.0
20/01:00am 13.1 11.5 8.6 74 2.3 SSW 7 9 4 5 1020.2 - 0.0
20/12:30am 12.9 11.2 8.4 74 2.2 S 7 9 4 5 1020.4 - 0.0
20/12:00am 12.8 11.1 8.3 74 2.2 S 7 9 4 5 1020.6 1020.5 0.0
 
Date/Time
CDT
Tmp

°C
App
Tmp
°C
Dew
Point
°C
Rel
Hum
%
Delta-T

°C
Wind Press
QNH
hPa
Press
MSL
hPa
Rain
since
9 am
mm
Dir
 
Spd
km/h
Gust
km/h
Spd
kts
Gust
kts
19/11:30pm 12.7 11.0 8.2 74 2.2 S 7 9 4 5 1020.8 - 0.0
19/11:00pm 12.8 11.2 7.9 72 2.4 S 6 7 3 4 1021.1 - 0.0
19/10:30pm 13.8 12.1 8.2 69 2.8 S 7 7 4 4 1021.3 - 0.0
19/10:00pm 14.3 11.8 8.3 67 3.0 S 11 13 6 7 1021.3 - 0.0
19/09:30pm 15.0 12.5 8.3 64 3.4 S 11 13 6 7 1021.2 - 0.0
19/09:00pm 15.9 12.4 8.6 62 3.7 S 17 24 9 13 1020.9 1020.7 0.0
19/08:30pm 16.3 12.2 8.8 61 3.9 S 20 26 11 14 1020.9 - 0.0
19/08:00pm 16.7 11.9 8.7 59 4.1 SSW 24 32 13 17 1020.9 - 0.0
19/07:30pm 17.6 12.7 8.5 55 4.7 S 24 33 13 18 1020.8 - 0.0
19/07:00pm 18.2 12.8 7.9 51 5.3 S 26 35 14 19 1020.2 - 0.0
19/06:30pm 19.1 13.7 7.8 48 5.8 SSW 26 35 14 19 1020.0 - 0.0
19/06:00pm 19.6 14.3 8.3 48 5.9 S 26 35 14 19 1019.6 1019.5 0.0
19/05:30pm 20.1 14.8 8.4 47 6.1 S 26 35 14 19 1019.5 - 0.0
19/05:00pm 20.2 14.5 8.2 46 6.2 S 28 37 15 20 1019.6 - 0.0
19/04:30pm 20.7 15.4 8.4 45 6.4 SSW 26 41 14 22 1019.6 - 0.0
19/04:00pm 20.6 15.2 7.9 44 6.6 SSW 26 35 14 19 1019.6 - 0.0
19/03:30pm 20.9 16.4 8.5 45 6.5 SSW 22 33 12 18 1019.7 - 0.0
19/03:00pm 21.4 16.3 7.6 41 7.1 S 24 35 13 19 1019.9 1019.8 0.0
19/02:30pm 20.6 15.5 7.6 43 6.7 SSW 24 35 13 19 1019.9 - 0.0
19/02:00pm 20.9 17.4 7.2 41 7.0 SSW 15 33 8 18 1020.0 - 0.0

Latest Capital City Observations: Canberra | Sydney | Melbourne | Brisbane | Adelaide | Perth | Hobart | Darwin

Other Formats:

Comma delimited format used in spreadsheet applications
http://www.bom.gov.au/fwo/IDS60901/IDS60901.94814.axf

JavaScript Object Notation format (JSON) in row-major order
http://www.bom.gov.au/fwo/IDS60901/IDS60901.94814.json